Regional Weather Roundup
Issued by NWS Huntsville, AL

Home | Current Version | Previous Version | Text Only | Print | Product List | Glossary On
Versions: 1 2 3 4 5 6 7 8 9 10 11 12 13 14 15 16 17 18 19 20 21 22 23 24 25 26 27 28
000
ASUS44 KHUN 251610
RWRHUN

WEATHER ROUNDUP FOR THE TENNESSEE VALLEY
NATIONAL WEATHER SERVICE HUNTSVILLE AL
1100 AM CDT SAT OCT 25 2014

ALZ001>004-251700-
NORTHWEST ALABAMA

CITY           SKY/WX    TMP DP  RH WIND       PRES   REMARKS
SHOALS AIRPORT PTSUNNY   69  54  58 W5        30.13F
SHOALS TVA RES   N/A     64 N/A N/A MISG        N/A
$$

ALZ005>007-016-251700-
NORTH CENTRAL ALABAMA

CITY           SKY/WX    TMP DP  RH WIND       PRES   REMARKS
DECATUR AP     SUNNY     66  52  60 CALM      30.13F
HUNTSVILLE AP  SUNNY     65  50  58 CALM      30.12F
HUN NWS/UAH      N/A     66  49  54 S1          N/A
MERIDIANVILLE  SUNNY     66  45  45 CALM      30.12F
VINEMONT AP    FAIR      67  51  57 N3        30.14S
$$

ALZ008>010-251700-
NORTHEAST ALABAMA

CITY           SKY/WX    TMP DP  RH WIND       PRES   REMARKS
ALBERTVILLE    SUNNY     64  55  72 N7        30.12S
FORT PAYNE     SUNNY     63  45  51 CALM      30.10F
SCOTTSBORO AP  SUNNY     63  48  59 CALM      30.13S
SCOTTSBORO HCN   N/A     59 N/A N/A MISG        N/A
VALLEY HEAD      N/A     61 N/A N/A MISG        N/A
$$

TNZ076-096-097-251700-
SOUTHEASTERN MIDDLE TENNESSEE

CITY           SKY/WX    TMP DP  RH WIND       PRES   REMARKS
TULLAHOMA      SUNNY     66  52  59 CALM      30.11F
WINCHESTER     SUNNY     64  52  63 VRB3      30.12S
$$

...SURROUNDING SITES...

CITY           SKY/WX    TMP DP  RH WIND       PRES   REMARKS
ATLANTA        SUNNY     68  44  42 N6        30.08S
ANNISTON       SUNNY     68  49  50 CALM      30.12F
BIRMINGHAM     SUNNY     68  49  50 VRB6      30.15S
CHATTANOOGA    SUNNY     66  49  54 CALM      30.11F
CORINTH        FAIR      72  59  64 VRB6      30.10F
DALTON         SUNNY     64  46  52 NW9       30.10S
GADSDEN        SUNNY     64  48  55 CALM      30.12F
GOLDEN TRNGL   SUNNY     72  57  60 N7        30.15R
HALEYVILLE     FAIR      68  56  65 VRB6      30.16S
JACKSON TN     MOSUNNY   72  59  63 W7        30.09S
MEMPHIS        SUNNY     73  60  63 W6        30.11S
NASHVILLE      PTSUNNY   67  54  63 S5        30.09S
OXFORD MS      FAIR      70  57  64 W7        30.14S
ROME           SUNNY     68  47  46 VRB5      30.10S
SAVANNAH       SUNNY     70  63  78 VRB5      30.10F
TUPELO         SUNNY     72  58  61 VRB6      30.12F
TUSCALOOSA     SUNNY     68  52  56 CALM      30.14S
$$

...GULF COAST WEATHER...

CITY           SKY/WX    TMP DP  RH WIND       PRES   REMARKS
GULFPORT       SUNNY     73  53  49 NE7       30.15S
PASCAGOULA     SUNNY     72  52  49 N10       30.15S
MOBILE         SUNNY     70  52  52 N9        30.15F
GULF SHORES    SUNNY     71  49  46 N8        30.12F
PENSACOLA      SUNNY     73  50  44 N12       30.11S
DESTIN         SUNNY     73  47  39 N10G17    30.09S
PANAMA CITY    SUNNY     72  51  48 N6        30.07F
APPALACHICOLA  SUNNY     77  51  40 NE6       30.06S
$$




USA.gov is the U.S. government's official web portal to all federal, state and local government web resources and services.